Wichita Jabara, KS

5:58 AM CDT on June 23, 2017 (GMT -0500)
Col Jabara

Weather History for KAAO - October, 2012

Change the Weather History Date:

Thursday, October 18, 2012

  Actual Average (KIAB) Record (KIAB)
Temperature  
Mean Temperature 56 °F -  
Max Temperature 64 °F 67 °F 89 °F (2005)
Min Temperature 48 °F 46 °F 32 °F (2013)
Degree Days  
Heating Degree Days 10    
Growing Degree Days 6 (Base 50)    
Moisture  
Dew Point 24 °F    
Average Humidity 30    
Maximum Humidity 46    
Minimum Humidity 20    
Precipitation  
Precipitation 0.00 in - - ()
Sea Level Pressure  
Sea Level Pressure 29.83 in    
Wind  
Wind Speed 15 mph (WNW)    
Max Wind Speed 29 mph    
Max Gust Speed 45 mph    
Visibility 9 miles    
Events      
Averages and records for this station are not official NWS values.
T = Trace of Precipitation, MM = Missing Value Source: NWS Daily Summary

Daily Weather History Graph

Daily Weather History Graph

Search for Another Location

Airport or City:

Trip Planner

Search our weather history database for the weather conditions in past years. The results will help you decide how hot, cold, wet, or windy it might be!

Date:

Astronomy

Oct. 18, 2012 Rise Set
Actual Time 7:40 AM CDT 6:46 PM CDT
Civil Twilight 7:14 AM CDT 7:13 PM CDT
Nautical Twilight 6:43 AM CDT 7:43 PM CDT
Astronomical Twilight 6:13 AM CDT 8:13 PM CDT
Moon 11:20 AM CDT (10/18) 9:26 PM CDT (10/18)
Length of Visible Light 11h 59m
Length of Day
11h 06m
Waxing Crescent, 14% of the Moon is Illuminated
Oct 18
Waxing Crescent
Oct 21
First Quarter
Oct 29
Full
Nov 6
Last Quarter
Nov 13
New

Hourly Weather History & Observations

Time (CDT) Temp. Dew Point Humidity Pressure Visibility Wind Dir Wind Speed Gust Speed Precip Events Conditions
12:54 AM 48.9 °F 26.1 °F 41% 29.81 in 10.0 mi WNW 8.1 mph - N/A   Clear
1:54 AM 48.0 °F 28.0 °F 46% 29.82 in 10.0 mi West 9.2 mph - N/A   Clear
2:54 AM 48.9 °F 27.0 °F 43% 29.82 in 10.0 mi West 10.4 mph - N/A   Partly Cloudy
3:54 AM 50.0 °F 26.1 °F 39% 29.83 in 10.0 mi West 10.4 mph - N/A   Clear
4:54 AM 51.1 °F 25.0 °F 36% 29.83 in 10.0 mi West 12.7 mph - N/A   Clear
5:54 AM 50.0 °F 25.0 °F 38% 29.85 in 10.0 mi WNW 16.1 mph 23.0 mph N/A   Clear
6:54 AM 48.9 °F 25.0 °F 39% 29.86 in 10.0 mi West 17.3 mph 23.0 mph N/A   Clear
7:54 AM 48.9 °F 24.1 °F 38% 29.86 in 10.0 mi West 12.7 mph - N/A   Clear
8:54 AM 51.1 °F 24.1 °F 35% 29.87 in 10.0 mi WNW 17.3 mph 28.8 mph N/A   Clear
9:54 AM 53.1 °F 23.0 °F 31% 29.87 in 10.0 mi WNW 21.9 mph 33.4 mph N/A   Clear
10:54 AM 57.0 °F 21.9 °F 26% 29.86 in 10.0 mi WNW 27.6 mph 36.8 mph N/A   Clear
11:54 AM 59.0 °F 21.0 °F 23% 29.84 in 10.0 mi WNW 25.3 mph 36.8 mph N/A   Clear
12:54 PM 61.0 °F 21.9 °F 22% 29.83 in 10.0 mi WNW 28.8 mph 40.3 mph N/A   Clear
1:54 PM 63.0 °F 23.0 °F 22% 29.80 in 10.0 mi WNW 23.0 mph 35.7 mph N/A   Mostly Cloudy
2:54 PM 63.0 °F 21.9 °F 21% 29.78 in 10.0 mi WNW 26.5 mph 43.7 mph N/A   Overcast
3:54 PM 63.0 °F 21.0 °F 20% 29.78 in 6.0 mi NW 27.6 mph 44.9 mph N/A   Haze
4:54 PM 63.0 °F 21.0 °F 20% 29.78 in 5.0 mi WNW 26.5 mph 41.4 mph N/A   Haze
5:54 PM 62.1 °F 19.9 °F 20% 29.79 in 3.0 mi WNW 18.4 mph 28.8 mph N/A   Haze
6:54 PM 62.1 °F 21.9 °F 21% 29.80 in 7.0 mi WNW 18.4 mph 28.8 mph N/A   Mostly Cloudy
7:54 PM 61.0 °F 24.1 °F 24% 29.82 in 10.0 mi WNW 16.1 mph - N/A   Mostly Cloudy
8:54 PM 59.0 °F 25.0 °F 27% 29.83 in 10.0 mi WNW 13.8 mph - N/A   Overcast
9:54 PM 57.0 °F 25.0 °F 29% 29.83 in 10.0 mi West 12.7 mph - N/A   Overcast
10:54 PM 55.9 °F 24.1 °F 29% 29.83 in 10.0 mi WNW 15.0 mph 23.0 mph N/A   Overcast
11:54 PM 55.0 °F 25.0 °F 31% 29.83 in 10.0 mi WNW 15.0 mph 23.0 mph N/A   Clear